Погода в Кызылорде

Погода в Кызылорде : погода сейчас, прогноз погоды и архив. Всё, что Вы хотите узнать о погоде в Кызылорде!

Хотите узнать прогноз погоды в Кызылорде? Тогда Вам сюда: Погода в Кызылорде

Поиск расширенной информации на нашем сайте:

Полезная информация:

Другие новости

Новости СМИ2

Главная страница сайта

Новости сайта

03.07.2017

Напоминаем, что на нашем специализированном сайте Метеоцентр.Азия вы можете получить высокодетализированные автоматические прогнозы погоды по пунктам России, СНГ и мира в авиационном формате (включающие направление и скорость ветра, видимость, явления погоды, количество и форму облачности, нижнюю и верхнюю границу облачности).

Рекомендуем:

Погода в Кызылорде - сегодня

Время (UTC), дата Ветер
(°,м/с) 
Видим.   Явления Облачность Т
(°С)
Тd
(°С)
f(%) Тe
(°С)
Pmin
(гПа)
dP
(гПа)
Po
(мм)
O2
(г/м3)
Тmin Tmax R s Состояние
почвы
12 15.07.19 060 (СВ) 20000 м    ясно 
+41.3 +8.2 14 +41  1000.9  -0.5  740  258           
15 15.07.19 100 (В) 20000 м    ясно 
+37.8 +8.4 17 +38  1000.8  -0.1  740  261    +42.8       
18 15.07.19 тихо ()   н/о    ясно 
+29.6 +7.8 26 +30  1001.6  0.3  740  268    +42.8       
21 15.07.19 тихо ()   н/о    ясно 
+27.7 +8.8 30 +28  1001.3  -0.3  740  269           
00 16.07.19 340 (С) 20000 м    ясно 
+26.1 +8.9 34 +26  1001.4  740  271           
03 16.07.19 350 (С) 20000 м    ясно 
+30.8 +9 26 +31  1002.3  741  267           
06 16.07.19 010 (С) 20000 м    ясно 
+37.5 +13.3 24 +44  1002.3  0.4  741  260  +25.7         
09 16.07.19 030 (СВ) 20000 м    ясно 
+42 +12.4 18 +47  1001.6  -0.5  741  256           
12 16.07.19 350 (С) 20000 м    ясно 
+41.8 +12.3 18 +46  1001  -0.6  740  256           
15 16.07.19 340 (С) 20000 м    ясно 
+38.2 +13.4 23 +45  1001.6  0.4  741  259    +44.9       
18 16.07.19 360 (С) н/о    ясно 
+32.5 +12.3 29 +37  1002.9  741  265    +44.9       
21 16.07.19 340 (С) н/о    ясно 
+28.4 +10.6 33 +31  1003.6  0.5  742  269           
00 17.07.19 360 (С) 20000 м    ясно 
+26 +8.8 34 +26  1003.8  0.1  742  271           
03 17.07.19 360 (С) 20000 м    ясно 
+28.5 +8.8 29 +29  1004.8  1.1  743  269           
06 17.07.19 320 (СЗ) 20000 м    ясно 
+35.7 +12.1 24 +40  1004.4  743  262  +25.4         
09 17.07.19 310 (СЗ) 20000 м    ясно 
+39.7 +13 21 +45  1003.4  -0.8  742  259           
12 17.07.19 360 (С) 20000 м    ясно 
+40.6 +13 20 +46  1002.7  -0.7  742  258           
15 17.07.19 340 (С) 20000 м    4/0 верхняя 
[Ci]
+34.7 +11.7 25 +38  1003.2  0.2  742  263    +41       
18 17.07.19 340 (С) н/о    4/0 верхняя 
[Ci]
+30.6 +10.6 29 +33  1003.8  0.4  742  267    +41       
21 17.07.19 350 (С) н/о    3/0 верхняя 
[Ci fib]
+27.7 +9 31 +28  1003.3  -0.6  742  270           
00 18.07.19 360 (С) 20000 м    3/0 верхняя 
[Ci fib]
+27.5 +12.2 39 +32  1003.4  0.1  742  269           
03 18.07.19 010 (С) 20000 м    ясно 
+29.6 +11 32 +32  1004.1  0.8  742  268           
06 18.07.19 050 (СВ) 20000 м    ясно 
+38.1 +11.2 20 +41  1004  0.3  742  261  +27         
09 18.07.19 010 (С) 20000 м    ясно 
+41.2 +11.9 18 +45  1003.8  -0.1  742  258           
12 18.07.19 360 (С) 20000 м    ясно 
+41.4 +11.2 17 +44  1002.8  -1  742  258           
Время (UTC), дата Ветер
(°,м/с) 
Видим.   Явления Облачность Т
(°С)
Тd
(°С)
f(%) Тe
(°С)
Pmin
(гПа)
dP
(гПа)
Po
(мм)
O2
(г/м3)
Тmin Tmax R s Состояние
почвы

Для получения пояснительной информации подведите курсор к названию столбца.

ПОГОДА в Кызылорде - архив

Всё, что Вы хотите узнать о погоде в Кызылорде - удобно и подробно!

Выберите нужную дату (начиная с 1 января 2018* года) и нажмите кнопку "Найти".
Будут отображены архивные сводки погоды по пункту Кызылорда, начиная с указанной даты.


Отображать данные в формате CSV (для использования в таблицах Excel)


Внимание! Наш архив погоды предназначен исключительно для личного некоммерческого использования в познавательных целях. Если Вам необходимы официальные справки о состоянии погоды (для производственных, юридических, коммерческих и т.п. целей), обращайтесь в органы Росгидромета.

*Примечание: данная дата относится к архиву по метеостанциям СССР (Россия, СНГ, Балтия).
Архив по метеостанциям Зарубежной Европы и Азии (кроме Китая) хранится 10 дней, по другим регионам земного шара (Китай, Африка, Америка, Австралия, Океания) - 1 день.

Кызылорда - район местоположения метеостанции


Название, широта, долгота, высота метеостанции:
Кызылорда (город) 44.8°ш. 65.5°д. 130 м над ур. моря [Казахстан]

Дополнительная информация

В oтличие oт бoльшинства пoгoдных сайтoв мы публикуем пoдрoбную метеoинфoрмацию в детальнoм прoфессиoнальнoм фoрмате.

Характеристики температуры и влажнoсти вoздуха измеряются на высoте 2 м в тени вдали oт зданий и деревьев.
Скoрoсть ветра измеряется на высoте 10 м (на урoвне рoста челoвека скoрoсть ветра ниже в 1.5-2 раза). Если метеoстанция нахoдится в гoрoде или в лесу, тo скoрoсть ветра занижена на 2-4 м/с пo сравнению с oткрытым местoм. Скoрoсть ветра над акватoриями крупных рек и oзёр, а также на вершинах хoлмoв на 2-5 м/с выше, чем в oбычных услoвиях.
Атмoсфернoе давление в разных тoчках местнoсти мoжет значительнo oтличаться oт давления на метеoстанции, в зависимoсти oт услoвий рельефа (при пoдъёме на 10 м давление пoнижается примернo на 1 мм рт.ст.).